SCP
0 0 0 0 0 1 1 1 2 2 2 3 3 5 2 1 0 2 0 0 0 0 0 1 2 1 3 3 4 3 1 0 0 0 0 0 0 0 1 0 1 0 1
0 0 0 0 0 0 0 1 1 1 2 2 3 4 2 2 1 3 0 0 0 0 -0 0 1 2 3 3 3 3 1 0 0 0 0 0 0 0 0 1 1 1 1
0 0 0 0 0 0 0 0 1 1 0 1 2 2 2 0 1 1 1 0 0 -0 1 1 1 3 3 2 2 2 2 0 0 0 0 0 0 1 0 1 1 1 1
0 0 0 0 0 0 0 0 0 0 0 0 0 0 1 1 0 0 0 0 0 1 1 2 3 3 2 2 2 2 2 1 1 1 0 0 0 0 0 0 0 0 0
0 0 0 0 0 0 0 0 0 0 0 0 0 0 0 0 0 0 1 1 1 1 2 2 1 1 0 1 2 2 1 1 1 0 0 0 0 0 0 0 -0 0 0
0 0 0 0 0 0 0 0 0 0 0 0 0 0 0 0 0 0 1 2 1 1 1 1 1 0 0 0 0 0 0 0 0 0 0 0 0 0 -0 -0 -0 -0 -0
0 0 0 0 0 0 0 0 0 0 0 0 0 0 0 -0 0 0 0 2 2 2 1 1 0 0 0 0 0 0 0 0 0 0 0 0 0 0 0 0 0 0 -0
0 0 0 0 0 0 0 0 0 0 0 0 0 0 0 0 -0 0 0 0 1 1 1 1 1 0 0 0 0 0 0 0 0 0 0 0 0 0 0 0 0 -0 0
0 0 0 0 0 0 0 0 0 0 0 0 0 0 0 0 0 0 0 0 0 0 1 1 1 0 0 0 1 0 0 0 0 0 0 0 0 -0 -0 0 -0 -0 0
0 0 0 0 0 0 0 0 0 0 0 0 0 0 0 -0 -0 -0 0 1 0 0 0 1 0 1 0 0 0 0 0 0 0 0 0 0 -0 -0 -0 0 0 -0 0
0 0 0 0 0 0 0 0 0 0 0 0 0 0 0 0 0 -0 -0 0 1 1 0 0 1 0 0 0 0 1 0 0 0 0 0 0 0 -0 0 0 0 0 0
-0 -0 0 0 0 0 0 0 0 0 0 0 0 0 0 0 0 0 0 0 1 1 0 1 1 0 0 0 0 0 0 0 0 0 0 0 0 -0 0 0 0 0 0
-0 -0 0 0 0 0 0 0 0 0 0 0 0 0 0 0 0 0 0 0 0 0 1 1 0 0 0 0 0 0 0 0 0 0 0 0 0 -0 0 0 0 0 0
-0 -0 0 0 0 0 0 0 0 0 0 0 0 0 0 0 0 0 0 0 0 0 0 1 0 0 0 0 0 0 0 0 0 0 0 0 0 0 0 0 0 0 0
-0 0 0 0 0 0 0 0 0 0 0 0 0 0 0 0 0 0 0 0 0 0 0 1 0 0 1 0 0 0 0 0 0 0 0 0 0 0 0 0 0 0 0
0 0 0 0 0 0 0 0 0 0 0 0 0 0 0 0 0 0 0 0 0 0 0 1 0 0 0 1 1 1 0 0 0 0 0 0 0 0 0 0 0 0 0
0 0 0 0 0 0 0 0 0 0 0 0 0 0 0 0 0 0 0 0 0 0 0 0 0 0 0 1 1 1 1 0 0 0 0 0 0 0 0 0 0 -0 0
0 0 0 0 0 0 0 0 0 0 0 0 0 -0 -0 -0 -0 -0 0 0 0 0 0 0 0 0 0 1 1 1 0 0 0 0 0 0 0 0 0 0 -0 -0 0
0 0 0 0 0 0 0 0 0 0 0 0 0 0 0 -0 -0 -0 -0 0 0 0 0 0 0 0 0 0 0 0 0 0 0 0 0 0 0 0 0 -0 0 0 0
0 0 0 0 0 0 0 0 0 0 0 0 0 0 0 0 0 -0 0 0 0 0 0 0 0 0 0 0 0 0 0 0 1 0 0 0 0 0 -0 -0 -0 0 0
0 0 0 0 0 0 0 0 0 0 0 0 0 0 0 0 0 0 0 0 0 0 0 0 0 0 0 0 0 0 0 0 0 0 0 0 0 0 -0 -0 0 0 0
0 0 0 0 0 0 0 0 -0 -0 0 0 0 0 0 0 0 0 0 0 0 0 0 0 0 0 0 0 0 0 0 0 0 0 0 0 0 -0 -0 -0 -0 -0 0
0 0 0 0 0 0 0 0 0 0 0 0 0 0 -0 0 0 0 0 0 0 0 0 0 0 0 0 0 0 0 0 0 0 0 0 0 -0 0 -0 -0 0 0 0
0 0 0 0 0 0 0 0 0 0 0 0 0 -0 0 0 0 0 0 0 0 0 0 0 0 -0 0 0 0 0 0 0 0 0 0 0 0 -0 -0 0 0 0 0
0 0 0 0 0 0 0 0 0 0 0 0 0 -0 0 0 0 0 0 0 0 0 0 0 -0 0 0 0 0 0 0 0 0 0 0 0 -0 0 0 0 0 0 0
0 0 0 0 0 0 0 0 0 0 0 0 0 0 0 0 0 0 0 0 0 0 0 0 0 -0 0 0 0 0 0 0 -0 -0 -0 0 0 0 0 0 0 0 0
Wind_Speed_500mb
36 40 44 41 44 49 44 55 59 65 65 76 77 74 83 69 63 66 49 52 32 35 27 45 49 49 48 43 38 30 40 45 31 39 38 54 42 48 50 60 69 58 52
36 40 38 40 42 50 52 41 48 50 54 59 69 58 67 62 70 74 68 45 45 39 70 73 58 49 45 38 39 40 40 42 35 32 35 27 57 64 66 49 49 54 50
42 47 50 46 48 50 58 52 47 46 49 43 45 56 71 59 46 48 51 39 37 58 67 51 40 32 38 34 34 26 24 27 18 22 19 34 53 46 45 49 54 55 57
48 51 53 58 51 52 61 56 56 52 56 58 48 42 40 56 46 47 48 49 64 68 50 50 46 38 38 31 29 30 35 36 28 27 26 27 33 36 45 55 55 50 46
58 58 59 61 60 58 57 60 58 62 61 58 62 51 33 52 50 41 47 46 47 41 42 41 40 39 29 26 26 26 24 24 23 23 23 24 22 25 36 38 40 44 45
57 60 60 57 61 67 65 65 64 64 63 71 78 64 60 36 42 43 39 40 40 42 38 35 31 31 41 30 27 28 23 18 28 37 36 36 36 39 46 49 52 48 53
65 61 61 62 69 65 63 66 68 64 64 59 66 67 62 87 47 44 47 35 28 28 30 32 28 29 30 26 24 19 18 19 23 21 23 22 26 29 33 40 43 44 47
66 59 61 65 69 77 86 73 67 68 65 65 55 61 85 46 76 29 36 38 26 31 32 34 36 31 23 17 16 19 18 17 15 16 23 24 27 35 38 42 49 54 55
77 71 73 75 82 78 80 77 82 69 71 62 60 56 72 76 65 61 42 46 54 39 43 51 46 40 38 30 29 31 27 23 24 21 19 25 32 42 37 41 43 39 47
74 75 74 75 69 73 82 79 70 63 68 69 57 59 66 87 82 78 65 48 52 66 63 56 66 52 45 43 46 44 44 44 35 22 26 34 37 35 40 44 40 29 35
66 71 72 73 73 82 74 70 74 74 59 56 64 70 63 68 70 76 77 64 62 68 68 56 61 45 55 61 61 60 57 46 38 32 38 42 40 29 36 45 48 35 39
88 81 80 81 80 76 71 75 76 72 72 67 61 71 64 66 62 65 71 79 75 65 64 69 60 69 70 73 71 66 62 58 54 51 52 55 47 38 37 43 47 48 46
74 79 82 81 76 72 70 68 69 74 62 68 60 69 76 71 58 67 68 70 69 69 63 57 56 65 69 82 80 79 73 68 65 61 62 61 52 37 43 51 57 56 51
81 81 74 70 71 71 71 67 68 66 72 66 69 68 62 67 73 55 69 75 77 71 64 67 70 63 51 68 69 77 76 67 60 57 59 54 40 39 48 54 47 44 54
73 74 77 80 77 72 77 80 81 78 72 72 70 66 72 61 55 68 68 60 71 76 74 72 73 74 66 59 59 70 72 69 63 59 58 45 37 45 48 40 42 46 48
75 75 73 71 71 73 71 78 83 82 85 75 82 70 72 78 66 41 49 65 58 68 75 78 81 77 58 53 57 60 67 58 54 50 47 38 41 46 40 37 40 46 41
65 65 66 67 74 73 73 71 74 73 74 85 84 77 85 83 79 68 53 56 42 56 82 82 70 61 64 57 57 59 53 49 43 46 53 50 52 48 46 40 42 45 24
61 64 66 70 73 75 72 71 75 75 73 78 83 95 88 96 97 84 58 37 35 35 71 70 63 60 60 56 58 56 53 48 52 50 47 50 46 37 30 46 37 32 20
61 64 63 69 75 68 69 69 74 72 76 72 65 68 81 102 98 103 90 68 45 34 39 74 57 53 54 57 55 54 62 61 55 51 47 46 38 30 36 36 26 17 33
49 42 39 44 51 57 63 62 63 69 71 68 67 67 56 64 105 110 104 85 70 58 49 43 64 59 42 55 48 53 64 65 56 48 52 48 38 33 43 42 40 58 55
47 35 23 29 30 33 39 45 50 58 62 65 67 62 54 60 67 99 99 88 89 77 67 41 49 56 56 51 43 42 57 49 47 53 56 43 32 37 43 40 39 43 53
38 16 18 22 29 28 29 36 46 46 49 52 51 45 64 46 47 62 86 88 86 78 67 61 41 41 58 56 43 55 44 54 59 56 47 39 37 45 43 38 61 50 49
38 22 26 24 20 12 17 18 4 27 30 31 42 44 49 52 59 52 65 82 79 72 75 51 51 57 45 46 62 60 57 58 52 49 40 38 42 44 29 45 58 29 61
30 33 22 26 31 21 17 19 22 24 24 27 31 40 32 46 47 48 54 59 68 63 58 61 66 75 55 41 39 54 61 55 45 38 41 43 41 33 49 34 41 54 53
25 27 27 29 34 32 28 24 18 20 25 30 37 44 37 31 43 51 53 56 50 60 54 59 62 57 50 25 24 51 51 47 49 40 42 44 37 38 41 43 44 47 43
32 23 24 27 32 42 35 35 33 26 27 31 43 43 41 38 43 56 56 57 50 53 47 47 54 61 48 29 33 39 46 49 51 53 46 43 27 49 50 47 45 41 36
Wind_Direction_500mb
291 283 281 288 296 284 291 286 281 276 273 270 269 263 266 265 253 227 232 243 242 233 267 245 233 236 245 244 234 245 268 270 266 265 284 251 301 300 289 289 292 290 289
293 297 293 290 286 297 283 287 284 292 275 281 268 261 256 254 244 238 239 245 244 218 216 232 226 239 246 251 255 252 267 266 270 283 285 259 264 271 277 281 287 289 292
290 292 293 293 286 288 290 285 273 269 269 265 276 274 270 250 241 210 236 215 195 219 212 214 222 223 235 245 252 256 257 264 270 249 257 249 257 271 281 284 279 286 293
293 288 288 287 291 283 285 287 296 276 265 264 252 252 263 237 257 244 225 211 207 211 211 214 215 219 231 234 245 249 248 251 261 273 276 275 280 290 290 286 267 286 299
283 287 285 285 287 284 283 282 278 281 268 262 272 277 295 264 232 208 200 199 199 198 200 205 208 214 222 223 222 229 235 246 246 258 266 270 277 282 308 304 297 300 296
280 278 279 282 282 277 278 282 278 279 278 268 255 267 243 286 275 211 203 194 196 196 188 197 197 210 228 227 229 229 233 245 254 263 273 279 283 289 296 294 294 301 306
282 282 279 281 281 287 285 277 277 274 275 278 264 260 244 253 269 225 202 210 209 213 204 199 205 206 211 210 218 225 231 251 265 272 285 294 301 303 307 304 298 293 291
280 281 276 278 280 281 281 283 278 272 272 268 265 264 249 241 256 260 229 213 198 227 222 214 214 201 227 220 227 224 230 242 262 292 312 320 322 326 308 300 299 291 284
281 277 275 274 279 273 273 278 272 276 262 264 257 254 244 252 253 251 249 230 231 222 233 236 229 211 217 223 231 236 233 236 241 271 301 305 311 324 323 312 308 294 284
277 272 271 277 274 271 269 268 268 263 258 253 254 254 236 240 252 256 250 244 240 228 232 227 237 229 223 225 230 230 221 239 253 249 257 280 304 317 321 315 312 271 273
276 274 272 275 270 274 263 259 265 267 264 258 251 249 245 251 245 243 247 245 232 230 240 241 228 237 242 241 238 240 248 257 256 250 258 276 296 298 298 298 305 277 270
285 277 271 278 273 264 259 261 260 263 260 252 253 252 249 250 245 241 240 238 238 229 236 243 255 236 236 240 240 241 250 256 254 258 266 276 285 295 287 292 289 290 284
283 278 273 272 268 259 257 255 254 252 254 253 250 246 247 247 244 238 237 234 235 229 225 239 242 236 236 241 240 243 247 252 256 261 265 272 280 287 278 281 286 288 279
280 280 277 270 263 258 254 248 245 245 244 248 244 242 241 243 239 233 237 236 240 237 238 235 227 236 237 240 239 241 239 245 249 253 262 270 279 271 272 284 290 286 291
278 274 272 269 265 259 251 251 248 244 241 239 239 237 234 242 243 238 229 234 234 236 234 237 240 236 241 242 242 236 238 239 241 252 265 268 260 263 289 285 279 289 288
279 276 272 268 263 257 256 256 260 252 242 240 240 237 235 233 245 231 223 232 234 233 231 228 233 236 232 231 234 231 232 232 238 253 257 256 237 264 298 281 278 294 286
286 280 276 270 269 265 258 253 253 256 249 241 235 237 231 230 232 241 247 233 226 223 222 227 221 224 220 219 218 210 208 222 245 249 246 242 244 265 295 288 280 286 271
282 275 271 268 263 262 258 258 255 250 245 247 243 233 230 230 229 232 234 241 237 215 215 216 222 219 220 217 216 215 216 222 232 244 242 236 250 278 273 279 280 267 261
295 288 284 277 270 264 259 256 250 247 248 250 250 248 236 228 228 232 236 237 238 213 218 214 214 222 216 221 217 218 225 226 231 239 244 246 251 273 278 285 275 238 267
316 310 297 284 277 272 269 264 250 244 242 238 238 240 239 228 224 225 231 236 231 218 206 216 213 215 214 219 213 221 230 237 237 241 246 246 250 272 260 242 264 262 278
336 334 324 309 302 291 279 265 254 245 237 236 233 226 229 230 222 219 222 224 224 218 212 196 216 212 222 230 227 223 231 234 237 241 241 235 257 254 257 250 268 266 283
3 12 2 341 323 323 303 294 265 245 236 228 232 226 210 207 223 218 216 217 223 220 219 209 213 206 226 232 235 234 237 235 235 234 226 235 261 251 234 266 273 259 178
22 52 21 9 5 7 358 16 145 217 214 211 206 210 198 206 214 216 209 211 213 218 222 206 212 219 217 224 228 232 232 232 231 224 229 255 241 226 254 260 263 196 149
30 43 39 37 37 43 41 55 92 118 140 155 168 188 179 196 207 201 197 198 206 203 208 209 210 211 210 229 235 227 217 219 219 223 247 240 223 229 262 266 166 157 161
47 55 55 58 54 54 62 71 94 127 147 160 170 171 171 173 173 173 175 180 191 191 199 206 210 209 208 210 206 206 203 215 225 249 216 212 211 242 191 166 160 160 164
53 59 69 80 67 70 73 77 83 108 122 131 152 156 160 158 160 163 167 173 180 185 193 198 194 208 205 225 200 203 212 229 239 224 202 190 196 168 173 172 169 165 164
Wind_Speed_850mb
36 40 44 41 44 49 44 55 59 65 65 76 77 74 83 69 63 66 49 52 32 35 27 45 49 49 48 43 38 30 40 45 31 39 38 54 42 48 50 60 69 58 52
36 40 38 40 42 50 52 41 48 50 54 59 69 58 67 62 70 74 68 45 45 39 70 73 58 49 45 38 39 40 40 42 35 32 35 27 57 64 66 49 49 54 50
42 47 50 46 48 50 58 52 47 46 49 43 45 56 71 59 46 48 51 39 37 58 67 51 40 32 38 34 34 26 24 27 18 22 19 34 53 46 45 49 54 55 57
48 51 53 58 51 52 61 56 56 52 56 58 48 42 40 56 46 47 48 49 64 68 50 50 46 38 38 31 29 30 35 36 28 27 26 27 33 36 45 55 55 50 46
58 58 59 61 60 58 57 60 58 62 61 58 62 51 33 52 50 41 47 46 47 41 42 41 40 39 29 26 26 26 24 24 23 23 23 24 22 25 36 38 40 44 45
57 60 60 57 61 67 65 65 64 64 63 71 78 64 60 36 42 43 39 40 40 42 38 35 31 31 41 30 27 28 23 18 28 37 36 36 36 39 46 49 52 48 53
65 61 61 62 69 65 63 66 68 64 64 59 66 67 62 87 47 44 47 35 28 28 30 32 28 29 30 26 24 19 18 19 23 21 23 22 26 29 33 40 43 44 47
66 59 61 65 69 77 86 73 67 68 65 65 55 61 85 46 76 29 36 38 26 31 32 34 36 31 23 17 16 19 18 17 15 16 23 24 27 35 38 42 49 54 55
77 71 73 75 82 78 80 77 82 69 71 62 60 56 72 76 65 61 42 46 54 39 43 51 46 40 38 30 29 31 27 23 24 21 19 25 32 42 37 41 43 39 47
74 75 74 75 69 73 82 79 70 63 68 69 57 59 66 87 82 78 65 48 52 66 63 56 66 52 45 43 46 44 44 44 35 22 26 34 37 35 40 44 40 29 35
66 71 72 73 73 82 74 70 74 74 59 56 64 70 63 68 70 76 77 64 62 68 68 56 61 45 55 61 61 60 57 46 38 32 38 42 40 29 36 45 48 35 39
88 81 80 81 80 76 71 75 76 72 72 67 61 71 64 66 62 65 71 79 75 65 64 69 60 69 70 73 71 66 62 58 54 51 52 55 47 38 37 43 47 48 46
74 79 82 81 76 72 70 68 69 74 62 68 60 69 76 71 58 67 68 70 69 69 63 57 56 65 69 82 80 79 73 68 65 61 62 61 52 37 43 51 57 56 51
81 81 74 70 71 71 71 67 68 66 72 66 69 68 62 67 73 55 69 75 77 71 64 67 70 63 51 68 69 77 76 67 60 57 59 54 40 39 48 54 47 44 54
73 74 77 80 77 72 77 80 81 78 72 72 70 66 72 61 55 68 68 60 71 76 74 72 73 74 66 59 59 70 72 69 63 59 58 45 37 45 48 40 42 46 48
75 75 73 71 71 73 71 78 83 82 85 75 82 70 72 78 66 41 49 65 58 68 75 78 81 77 58 53 57 60 67 58 54 50 47 38 41 46 40 37 40 46 41
65 65 66 67 74 73 73 71 74 73 74 85 84 77 85 83 79 68 53 56 42 56 82 82 70 61 64 57 57 59 53 49 43 46 53 50 52 48 46 40 42 45 24
61 64 66 70 73 75 72 71 75 75 73 78 83 95 88 96 97 84 58 37 35 35 71 70 63 60 60 56 58 56 53 48 52 50 47 50 46 37 30 46 37 32 20
61 64 63 69 75 68 69 69 74 72 76 72 65 68 81 102 98 103 90 68 45 34 39 74 57 53 54 57 55 54 62 61 55 51 47 46 38 30 36 36 26 17 33
49 42 39 44 51 57 63 62 63 69 71 68 67 67 56 64 105 110 104 85 70 58 49 43 64 59 42 55 48 53 64 65 56 48 52 48 38 33 43 42 40 58 55
47 35 23 29 30 33 39 45 50 58 62 65 67 62 54 60 67 99 99 88 89 77 67 41 49 56 56 51 43 42 57 49 47 53 56 43 32 37 43 40 39 43 53
38 16 18 22 29 28 29 36 46 46 49 52 51 45 64 46 47 62 86 88 86 78 67 61 41 41 58 56 43 55 44 54 59 56 47 39 37 45 43 38 61 50 49
38 22 26 24 20 12 17 18 4 27 30 31 42 44 49 52 59 52 65 82 79 72 75 51 51 57 45 46 62 60 57 58 52 49 40 38 42 44 29 45 58 29 61
30 33 22 26 31 21 17 19 22 24 24 27 31 40 32 46 47 48 54 59 68 63 58 61 66 75 55 41 39 54 61 55 45 38 41 43 41 33 49 34 41 54 53
25 27 27 29 34 32 28 24 18 20 25 30 37 44 37 31 43 51 53 56 50 60 54 59 62 57 50 25 24 51 51 47 49 40 42 44 37 38 41 43 44 47 43
32 23 24 27 32 42 35 35 33 26 27 31 43 43 41 38 43 56 56 57 50 53 47 47 54 61 48 29 33 39 46 49 51 53 46 43 27 49 50 47 45 41 36
Wind_Direction_850mb
291 283 281 288 296 284 291 286 281 276 273 270 269 263 266 265 253 227 232 243 242 233 267 245 233 236 245 244 234 245 268 270 266 265 284 251 301 300 289 289 292 290 289
293 297 293 290 286 297 283 287 284 292 275 281 268 261 256 254 244 238 239 245 244 218 216 232 226 239 246 251 255 252 267 266 270 283 285 259 264 271 277 281 287 289 292
290 292 293 293 286 288 290 285 273 269 269 265 276 274 270 250 241 210 236 215 195 219 212 214 222 223 235 245 252 256 257 264 270 249 257 249 257 271 281 284 279 286 293
293 288 288 287 291 283 285 287 296 276 265 264 252 252 263 237 257 244 225 211 207 211 211 214 215 219 231 234 245 249 248 251 261 273 276 275 280 290 290 286 267 286 299
283 287 285 285 287 284 283 282 278 281 268 262 272 277 295 264 232 208 200 199 199 198 200 205 208 214 222 223 222 229 235 246 246 258 266 270 277 282 308 304 297 300 296
280 278 279 282 282 277 278 282 278 279 278 268 255 267 243 286 275 211 203 194 196 196 188 197 197 210 228 227 229 229 233 245 254 263 273 279 283 289 296 294 294 301 306
282 282 279 281 281 287 285 277 277 274 275 278 264 260 244 253 269 225 202 210 209 213 204 199 205 206 211 210 218 225 231 251 265 272 285 294 301 303 307 304 298 293 291
280 281 276 278 280 281 281 283 278 272 272 268 265 264 249 241 256 260 229 213 198 227 222 214 214 201 227 220 227 224 230 242 262 292 312 320 322 326 308 300 299 291 284
281 277 275 274 279 273 273 278 272 276 262 264 257 254 244 252 253 251 249 230 231 222 233 236 229 211 217 223 231 236 233 236 241 271 301 305 311 324 323 312 308 294 284
277 272 271 277 274 271 269 268 268 263 258 253 254 254 236 240 252 256 250 244 240 228 232 227 237 229 223 225 230 230 221 239 253 249 257 280 304 317 321 315 312 271 273
276 274 272 275 270 274 263 259 265 267 264 258 251 249 245 251 245 243 247 245 232 230 240 241 228 237 242 241 238 240 248 257 256 250 258 276 296 298 298 298 305 277 270
285 277 271 278 273 264 259 261 260 263 260 252 253 252 249 250 245 241 240 238 238 229 236 243 255 236 236 240 240 241 250 256 254 258 266 276 285 295 287 292 289 290 284
283 278 273 272 268 259 257 255 254 252 254 253 250 246 247 247 244 238 237 234 235 229 225 239 242 236 236 241 240 243 247 252 256 261 265 272 280 287 278 281 286 288 279
280 280 277 270 263 258 254 248 245 245 244 248 244 242 241 243 239 233 237 236 240 237 238 235 227 236 237 240 239 241 239 245 249 253 262 270 279 271 272 284 290 286 291
278 274 272 269 265 259 251 251 248 244 241 239 239 237 234 242 243 238 229 234 234 236 234 237 240 236 241 242 242 236 238 239 241 252 265 268 260 263 289 285 279 289 288
279 276 272 268 263 257 256 256 260 252 242 240 240 237 235 233 245 231 223 232 234 233 231 228 233 236 232 231 234 231 232 232 238 253 257 256 237 264 298 281 278 294 286
286 280 276 270 269 265 258 253 253 256 249 241 235 237 231 230 232 241 247 233 226 223 222 227 221 224 220 219 218 210 208 222 245 249 246 242 244 265 295 288 280 286 271
282 275 271 268 263 262 258 258 255 250 245 247 243 233 230 230 229 232 234 241 237 215 215 216 222 219 220 217 216 215 216 222 232 244 242 236 250 278 273 279 280 267 261
295 288 284 277 270 264 259 256 250 247 248 250 250 248 236 228 228 232 236 237 238 213 218 214 214 222 216 221 217 218 225 226 231 239 244 246 251 273 278 285 275 238 267
316 310 297 284 277 272 269 264 250 244 242 238 238 240 239 228 224 225 231 236 231 218 206 216 213 215 214 219 213 221 230 237 237 241 246 246 250 272 260 242 264 262 278
336 334 324 309 302 291 279 265 254 245 237 236 233 226 229 230 222 219 222 224 224 218 212 196 216 212 222 230 227 223 231 234 237 241 241 235 257 254 257 250 268 266 283
3 12 2 341 323 323 303 294 265 245 236 228 232 226 210 207 223 218 216 217 223 220 219 209 213 206 226 232 235 234 237 235 235 234 226 235 261 251 234 266 273 259 178
22 52 21 9 5 7 358 16 145 217 214 211 206 210 198 206 214 216 209 211 213 218 222 206 212 219 217 224 228 232 232 232 231 224 229 255 241 226 254 260 263 196 149
30 43 39 37 37 43 41 55 92 118 140 155 168 188 179 196 207 201 197 198 206 203 208 209 210 211 210 229 235 227 217 219 219 223 247 240 223 229 262 266 166 157 161
47 55 55 58 54 54 62 71 94 127 147 160 170 171 171 173 173 173 175 180 191 191 199 206 210 209 208 210 206 206 203 215 225 249 216 212 211 242 191 166 160 160 164
53 59 69 80 67 70 73 77 83 108 122 131 152 156 160 158 160 163 167 173 180 185 193 198 194 208 205 225 200 203 212 229 239 224 202 190 196 168 173 172 169 165 164